This demonstration page uses our WeatherBlox Daily Observations layout. Learn more.

Hourly Observations for July 9, 2018

Temp ( °F °C ) Dew Point ( °F °C ) Humidity (%) Winds ( mph kmh ) Pressure ( in mb ) Visibility ( mi km ) Precip ( " mm )
12:15 am 00:15 Clear 72 22 61 16.3 70 70 S 9 15 30.06 1018 10 16.0934 0 0
12:35 am 00:35 Clear 71 21.6 61 16.2 71 71 S 9 15 30.06 1018 10 16.0934 0 0
12:55 am 00:55 Clear 71 21.7 61 16 70 70 S 9 15 30.06 1018 10 16.0934 0 0
1:15 am 01:15 Clear 71 21.9 60 15.7 68 68 S 10 17 30.06 1018 10 16.0934 0 0
1:35 am 01:35 Clear 71 21.6 60 15.5 68 68 S 10 17 30.06 1018 10 16.0934 0 0
1:55 am 01:55 Clear 71 21.5 60 15.5 69 69 SSW 7 11 30.06 1018 10 16.0934 0 0
2:15 am 02:15 Clear 71 21.6 60 15.5 68 68 SSW 9 15 30.06 1018 10 16.0934 0 0
2:35 am 02:35 Clear 71 21.5 60 15.6 69 69 SSW 10 17 30.06 1018 10 16.0934 0 0
2:55 am 02:55 Clear 70 21.3 60 15.7 71 71 SSW 8 13 30.06 1018 10 16.0934 0 0
3:15 am 03:15 Clear 71 21.4 60 15.7 70 70 SSW 10 17 30.06 1018 10 16.0934 0 0
3:35 am 03:35 Clear 70 21.1 60 15.8 72 72 SW 9 15 30.06 1018 10 16.0934 0 0
3:55 am 03:55 Clear 69 20.8 60 15.8 73 73 SW 8 13 30.09 1019 10 16.0934 0 0
4:15 am 04:15 Clear 69 20.7 61 15.9 74 74 SW 8 13 30.09 1019 10 16.0934 0 0
4:35 am 04:35 Clear 68 20.1 60 15.8 76 76 SSW 7 11 30.09 1019 10 16.0934 0 0
4:55 am 04:55 Clear 67 19.5 61 16 80 80 SW 7 11 30.09 1019 10 16.0934 0 0
5:15 am 05:15 Clear 66 19.1 61 16 82 82 SW 6 9 30.09 1019 10 16.0934 0 0
5:35 am 05:35 Clear 66 19 61 16 83 83 SW 6 9 30.09 1019 10 16.0934 0 0
5:55 am 05:55 Clear 65 18.5 61 16 85 85 SW 7 11 30.09 1019 10 16.0934 0 0
6:15 am 06:15 Clear 66 18.7 60 15.7 83 83 SW 6 9 30.12 1020 10 16.0934 0 0
6:35 am 06:35 Sunny 66 19 60 15.8 82 82 SW 8 13 30.12 1020 10 16.0934 0 0
6:55 am 06:55 Sunny 66 19 60 15.8 82 82 SSW 6 9 30.12 1020 10 16.0934 0 0
7:15 am 07:15 Sunny 67 19.4 61 16 81 81 SW 7 11 30.12 1020 10 16.0934 0 0
7:35 am 07:35 Sunny 68 20.1 61 16.2 78 78 SW 3 6 30.12 1020 10 16.0934 0 0
7:55 am 07:55 Sunny 69 20.7 62 16.5 77 77 SW 5 7 30.15 1021 10 16.0934 0 0
8:15 am 08:15 Sunny 71 21.6 62 16.5 73 73 SSW 5 7 30.12 1020 10 16.0934 0 0
8:35 am 08:35 Sunny 72 22.2 62 16.4 70 70 SW 6 9 30.12 1020 10 16.0934 0 0
8:55 am 08:55 Sunny 73 23 62 16.4 66 66 SW 7 11 30.12 1020 10 16.0934 0 0
9:15 am 09:15 Sunny 74 23.5 62 16.7 66 66 SW 7 11 30.12 1020 10 16.0934 0 0
9:35 am 09:35 Sunny 75 23.8 63 17 66 66 SSW 8 13 30.12 1020 10 16.0934 0 0
9:55 am 09:55 Sunny 76 24.4 64 17.7 66 66 SW 7 11 30.12 1020 10 16.0934 0 0
10:15 am 10:15 Sunny 77 25.1 65 18.1 65 65 SW 10 17 30.12 1020 10 16.0934 0 0
10:35 am 10:35 Sunny 78 25.8 65 18.6 65 65 SSW 6 9 30.09 1019 10 16.0934 0 0
10:55 am 10:55 Sunny 80 26.6 66 19.1 64 64 S 5 7 30.09 1019 10 16.0934 0 0
11:15 am 11:15 Sunny 81 27.3 67 19.6 63 63 SSW 8 13 30.09 1019 10 16.0934 0 0
11:35 am 11:35 Sunny 82 28 67 19.5 60 60 S 8 13 30.09 1019 10 16.0934 0 0
11:55 am 11:55 Sunny 83 28.4 68 19.8 60 60 SSW 8 13 30.09 1019 10 16.0934 0 0
12:15 pm 12:15 Sunny 84 29.1 68 19.8 57 57 S 8 13 30.06 1018 10 16.0934 0 0
12:35 pm 12:35 Sunny 84 29 67 19.7 57 57 S 6 9 30.06 1018 10 16.0934 0 0
12:55 pm 12:55 Sunny 85 29.6 68 20.2 57 57 SSW 7 11 30.06 1018 10 16.0934 0 0
1:15 pm 13:15 Sunny 85 29.6 68 19.9 56 56 S 7 11 30.06 1018 10 16.0934 0 0
1:35 pm 13:35 Sunny 86 30.1 67 19.4 53 53 SSW 7 11 30.06 1018 10 16.0934 0 0
1:55 pm 13:55 Sunny 87 30.3 65 18.5 49 49 S 8 13 30.06 1018 10 16.0934 0 0
2:15 pm 14:15 Sunny 87 30.3 66 19 51 51 SE 6 9 30.06 1018 10 16.0934 0 0
2:35 pm 14:35 Sunny 87 30.6 66 19.1 50 50 S 8 13 30.03 1017 10 16.0934 0 0
2:55 pm 14:55 Sunny 87 30.7 66 18.9 49 49 SSE 12 19 30.03 1017 10 16.0934 0 0
3:15 pm 15:15 Sunny 87 30.8 64 17.8 46 46 SSE 9 15 30.03 1017 10 16.0934 0 0
3:35 pm 15:35 Sunny 88 30.9 65 18.2 47 47 SE 9 15 30.03 1017 10 16.0934 0 0
3:55 pm 15:55 Sunny 88 31 65 18.2 46 46 SE 7 11 30.03 1017 10 16.0934 0 0
4:15 pm 16:15 Sunny 88 31 64 17.8 45 45 SSE 5 7 30.03 1017 10 16.0934 0 0
4:35 pm 16:35 Sunny 89 31.6 65 18.3 45 45 SSE 6 9 30.03 1017 10 16.0934 0 0
4:55 pm 16:55 Sunny 89 31.5 64 17.8 44 44 SE 5 7 30.03 1017 10 16.0934 0 0
5:15 pm 17:15 Sunny 89 31.4 64 17.6 44 44 SE 5 7 30.03 1017 10 16.0934 0 0
5:35 pm 17:35 Sunny 89 31.4 66 18.8 47 47 SE 5 7 30.03 1017 10 16.0934 0 0
5:55 pm 17:55 Sunny 88 31.2 65 18.1 46 46 SSE 5 7 30 1016 10 16.0934 0 0
6:15 pm 18:15 Sunny 89 31.4 65 18.3 46 46 SE 3 6 30 1016 10 16.0934 0 0
6:35 pm 18:35 Sunny 87 30.6 70 20.9 56 56 E 5 7 30 1016 10 16.0934 0 0
6:55 pm 18:55 Sunny 86 30.2 71 21.7 60 60 E 6 9 30 1016 10 16.0934 0 0
7:15 pm 19:15 Sunny 86 29.8 71 21.8 62 62 E 6 9 30 1016 10 16.0934 0 0
7:35 pm 19:35 Sunny 85 29.5 71 21.4 62 62 ESE 5 7 30 1016 10 16.0934 0 0
7:55 pm 19:55 Sunny 84 28.9 72 22.3 68 68 E 5 7 30 1016 10 16.0934 0 0
8:15 pm 20:15 Sunny 82 28 73 22.5 72 72 Calm 30.03 1017 10 16.0934 0 0
8:35 pm 20:35 Sunny 81 27.1 72 22.4 76 76 E 3 6 30.03 1017 10 16.0934 0 0
8:55 pm 20:55 Sunny 79 26.1 71 21.8 77 77 ESE 5 7 30.03 1017 10 16.0934 0 0
9:15 pm 21:15 Clear 78 25.3 70 21.3 79 79 ESE 3 6 30.03 1017 10 16.0934 0 0
9:35 pm 21:35 Clear 76 24.4 70 20.9 81 81 Calm 30.06 1018 10 16.0934 0 0
9:55 pm 21:55 Clear 75 23.8 69 20.7 83 83 ESE 3 6 30.09 1019 10 16.0934 0 0
10:15 pm 22:15 Clear 73 22.7 68 20.2 86 86 E 6 9 30.09 1019 10 16.0934 0 0
10:35 pm 22:35 Clear 71 21.8 68 19.8 88 88 ESE 7 11 30.09 1019 10 16.0934 0 0
10:55 pm 22:55 Clear 72 22 65 18.6 81 81 SE 8 13 30.09 1019 10 16.0934 0 0
11:15 pm 23:15 Clear 71 21.7 64 18 80 80 SSE 8 13 30.09 1019 10 16.0934 0 0
11:35 pm 23:35 Clear 70 21.3 64 18 82 82 SE 7 11 30.09 1019 10 16.0934 0 0
11:55 pm 23:55 Clear 71 21.5 64 17.7 79 79 SSE 6 9 30.09 1019 10 16.0934 0 0

Powered by AerisWeather